| time (UTC) | temp C | wind direction | speed KPH | gust KPH | rain 1hr cm | rain 24hr cm | rain mn cm | humidity % | barometer mb |
| 20260510234615 | 11 | 144 | 8.0 | 17.7 | 0.00 | 0.03 | 0.03 | 58 | 1013.3 |
| 20260510233115 | 11 | 159 | 6.4 | 16.1 | 0.00 | 0.03 | 0.03 | 57 | 1013.2 |
| 20260510231621 | 12 | 145 | 4.8 | 12.9 | 0.00 | 0.03 | 0.03 | 55 | 1013.0 |
| 20260510230003 | 12 | 149 | 6.4 | 14.5 | 0.00 | 0.03 | 0.03 | 53 | 1013.0 |
| 20260510224534 | 12 | 136 | 9.7 | 16.1 | 0.00 | 0.03 | 0.03 | 55 | 1013.0 |
| 20260510223101 | 12 | 148 | 6.4 | 16.1 | 0.00 | 0.03 | 0.03 | 53 | 1013.0 |
| 20260510221603 | 13 | 126 | 6.4 | 12.9 | 0.00 | 0.03 | 0.03 | 52 | 1013.1 |
| 20260510220050 | 14 | 163 | 6.4 | 14.5 | 0.00 | 0.03 | 0.03 | 48 | 1013.1 |
| 20260510214556 | 14 | 209 | 4.8 | 12.9 | 0.00 | 0.03 | 0.03 | 48 | 1013.1 |
| 20260510213119 | 14 | 172 | 4.8 | 19.3 | 0.00 | 0.03 | 0.03 | 45 | 1013.3 |
| 20260510211605 | 14 | 133 | 3.2 | 12.9 | 0.00 | 0.03 | 0.03 | 43 | 1013.1 |
| 20260510210104 | 13 | 157 | 4.8 | 14.5 | 0.00 | 0.03 | 0.03 | 39 | 1013.3 |
| 20260510204618 | 12 | 146 | 8.0 | 17.7 | 0.00 | 0.03 | 0.03 | 45 | 1013.3 |
| 20260510203117 | 11 | 227 | 3.2 | 12.9 | 0.00 | 0.03 | 0.03 | 48 | 1013.3 |
| 20260510201626 | 11 | 161 | 9.7 | 17.7 | 0.00 | 0.03 | 0.03 | 52 | 1013.0 |
| 20260510200137 | 11 | 168 | 6.4 | 14.5 | 0.00 | 0.03 | 0.03 | 47 | 1013.1 |
| 20260510194623 | 12 | 269 | 4.8 | 12.9 | 0.00 | 0.03 | 0.03 | 41 | 1013.0 |
| 20260510193003 | 12 | 257 | 3.2 | 11.3 | 0.00 | 0.03 | 0.03 | 47 | 1013.0 |
| 20260510191514 | 12 | 323 | 6.4 | 12.9 | 0.00 | 0.03 | 0.03 | 39 | 1013.1 |
| 20260510190128 | 12 | 175 | 3.2 | 12.9 | 0.00 | 0.03 | 0.03 | 45 | 1013.0 |
| 20260510184508 | 11 | 277 | 3.2 | 9.7 | 0.00 | 0.03 | 0.03 | 44 | 1013.1 |
| 20260510183111 | 11 | 269 | 3.2 | 12.9 | 0.00 | 0.03 | 0.03 | 46 | 1013.3 |
| 20260510181555 | 11 | 284 | 1.6 | 11.3 | 0.00 | 0.03 | 0.03 | 47 | 1013.2 |
| 20260510180105 | 10 | 310 | 1.6 | 12.9 | 0.00 | 0.03 | 0.03 | 51 | 1013.4 |
| 20260510174604 | 10 | 158 | 4.8 | 12.9 | 0.00 | 0.03 | 0.03 | 52 | 1013.3 |
| 20260510173109 | 9 | 261 | 3.2 | 11.3 | 0.00 | 0.03 | 0.03 | 58 | 1013.2 |
| 20260510171627 | 8 | 271 | 3.2 | 11.3 | 0.00 | 0.03 | 0.03 | 62 | 1013.3 |
| 20260510170122 | 8 | 336 | 4.8 | 9.7 | 0.00 | 0.03 | 0.03 | 62 | 1013.1 |
| 20260510164630 | 7 | 309 | 1.6 | 9.7 | 0.00 | 0.03 | 0.03 | 68 | 1013.0 |
| 20260510163055 | 6 | 22 | 1.6 | 8.0 | 0.00 | 0.03 | 0.03 | 76 | 1013.0 |
| 20260510161534 | 6 | 350 | 3.2 | 11.3 | 0.00 | 0.03 | 0.03 | 75 | 1012.8 |
| 20260510160100 | 5 | 262 | 3.2 | 9.7 | 0.00 | 0.03 | 0.03 | 85 | 1012.7 |
| 20260510154534 | 5 | 146 | 1.6 | 8.0 | 0.00 | 0.03 | 0.03 | 87 | 1012.7 |
| 20260510153102 | 4 | 178 | 1.6 | 6.4 | 0.00 | 0.03 | 0.03 | 93 | 1012.7 |
| 20260510151606 | 3 | 176 | 0.0 | 0.0 | 0.00 | 0.03 | 0.03 | 94 | 1012.8 |
| 20260510150109 | 3 | 176 | 0.0 | 1.6 | 0.00 | 0.03 | 0.03 | 94 | 1012.5 |
| 20260510144618 | 3 | 176 | 0.0 | 4.8 | 0.00 | 0.03 | 0.03 | 95 | 1012.5 |
| 20260510143132 | 3 | 176 | 3.2 | 6.4 | 0.00 | 0.03 | 0.03 | 95 | 1012.2 |
| 20260510141624 | 2 | 176 | 0.0 | 3.2 | 0.00 | 0.03 | 0.03 | 95 | 1012.2 |
| 20260510140023 | 2 | 176 | 0.0 | 0.0 | 0.00 | 0.03 | 0.03 | 95 | 1012.2 |
| 20260510134514 | 2 | 176 | 0.0 | 0.0 | 0.00 | 0.03 | 0.03 | 94 | 1012.1 |
| 20260510133024 | 2 | 176 | 1.6 | 4.8 | 0.00 | 0.03 | 0.03 | 95 | 1011.9 |
| 20260510131506 | 2 | 176 | 0.0 | 4.8 | 0.00 | 0.03 | 0.03 | 95 | 1011.5 |
| 20260510130052 | 2 | 176 | 0.0 | 4.8 | 0.00 | 0.03 | 0.03 | 94 | 1011.3 |
| 20260510124603 | 2 | 176 | 0.0 | 0.0 | 0.00 | 0.03 | 0.03 | 94 | 1011.2 |
| 20260510123117 | 2 | 176 | 0.0 | 0.0 | 0.00 | 0.03 | 0.03 | 94 | 1011.0 |
| 20260510121626 | 2 | 176 | 0.0 | 4.8 | 0.00 | 0.03 | 0.03 | 94 | 1010.9 |
| 20260510120044 | 2 | 176 | 3.2 | 6.4 | 0.00 | 0.03 | 0.03 | 94 | 1010.6 |
| 20260510114532 | 2 | 167 | 4.8 | 8.0 | 0.00 | 0.03 | 0.03 | 94 | 1010.6 |
| 20260510113049 | 2 | 144 | 0.0 | 0.0 | 0.00 | 0.03 | 0.03 | 94 | 1010.6 |
| 20260510111619 | 2 | 144 | 0.0 | 0.0 | 0.00 | 0.03 | 0.03 | 94 | 1010.6 |
| 20260510110125 | 2 | 144 | 0.0 | 0.0 | 0.00 | 0.03 | 0.03 | 94 | 1010.6 |
| 20260510104517 | 2 | 144 | 0.0 | 0.0 | 0.00 | 0.03 | 0.03 | 93 | 1010.6 |
| 20260510103129 | 2 | 144 | 0.0 | 0.0 | 0.00 | 0.03 | 0.03 | 93 | 1010.6 |
| 20260510101501 | 2 | 144 | 0.0 | 0.0 | 0.00 | 0.03 | 0.03 | 93 | 1010.6 |
| 20260510100050 | 2 | 144 | 0.0 | 0.0 | 0.00 | 0.03 | 0.03 | 93 | 1010.4 |
| 20260510094536 | 2 | 144 | 0.0 | 0.0 | 0.03 | 0.03 | 0.03 | 92 | 1010.4 |
| 20260510093056 | 2 | 144 | 0.0 | 0.0 | 0.03 | 0.03 | 0.03 | 92 | 1010.2 |
| 20260510091519 | 2 | 139 | 3.2 | 6.4 | 0.03 | 0.03 | 0.03 | 92 | 1010.0 |
| 20260510090128 | 2 | 329 | 0.0 | 3.2 | 0.03 | 0.03 | 0.03 | 92 | 1010.2 |
| 20260510084532 | 2 | 348 | 1.6 | 6.4 | 0.00 | 0.00 | 0.00 | 91 | 1009.9 |
| 20260510083057 | 2 | 325 | 0.0 | 3.2 | 0.00 | 0.00 | 0.00 | 91 | 1009.8 |
| 20260510081608 | 2 | 325 | 1.6 | 6.4 | 0.00 | 0.00 | 0.00 | 91 | 1009.6 |
| 20260510080113 | 2 | 309 | 1.6 | 4.8 | 0.00 | 0.00 | 0.00 | 91 | 1009.5 |
| 20260510074622 | 2 | 309 | 1.6 | 6.4 | 0.00 | 0.00 | 0.00 | 91 | 1009.5 |
| 20260510073023 | 2 | 309 | 3.2 | 8.0 | 0.00 | 0.00 | 0.00 | 92 | 1009.2 |
| 20260510071626 | 2 | 317 | 0.0 | 8.0 | 0.00 | 0.00 | 0.00 | 91 | 1009.2 |
| 20260510070042 | 2 | 318 | 4.8 | 6.4 | 0.00 | 0.00 | 0.00 | 91 | 1009.1 |
| 20260510064543 | 2 | 32 | 1.6 | 8.0 | 0.00 | 0.00 | 0.00 | 90 | 1008.5 |
| 20260510063044 | 2 | 95 | 1.6 | 8.0 | 0.00 | 0.00 | 0.00 | 89 | 1008.2 |
| 20260510061532 | 2 | 339 | 4.8 | 12.9 | 0.00 | 0.00 | 0.00 | 89 | 1007.8 |
| 20260510060101 | 3 | 107 | 3.2 | 8.0 | 0.00 | 0.00 | 0.00 | 90 | 1007.2 |
| 20260510054608 | 3 | 51 | 3.2 | 16.1 | 0.00 | 0.00 | 0.00 | 91 | 1007.3 |
| 20260510053107 | 2 | 128 | 4.8 | 17.7 | 0.00 | 0.00 | 0.00 | 92 | 1007.8 |
| 20260510051609 | 2 | 325 | 12.9 | 24.1 | 0.00 | 0.00 | 0.00 | 91 | 1008.1 |
| 20260510050058 | 3 | 306 | 6.4 | 19.3 | 0.00 | 0.00 | 0.00 | 90 | 1008.0 |
| 20260510044626 | 3 | 74 | 8.0 | 27.4 | 0.00 | 0.00 | 0.00 | 90 | 1007.6 |
| 20260510043112 | 3 | 360 | 8.0 | 24.1 | 0.00 | 0.00 | 0.00 | 89 | 1007.6 |
| 20260510041614 | 3 | 355 | 8.0 | 24.1 | 0.00 | 0.00 | 0.00 | 86 | 1007.5 |
| 20260510040118 | 4 | 344 | 12.9 | 32.2 | 0.00 | 0.00 | 0.00 | 83 | 1007.1 |
| 20260510034612 | 5 | 325 | 16.1 | 38.6 | 0.00 | 0.00 | 0.00 | 77 | 1006.8 |
| 20260510033126 | 6 | 294 | 11.3 | 27.4 | 0.00 | 0.00 | 0.00 | 68 | 1006.0 |
| 20260510031620 | 8 | 313 | 8.0 | 24.1 | 0.00 | 0.00 | 0.00 | 50 | 1005.7 |
| 20260510030123 | 10 | 321 | 0.0 | 12.9 | 0.00 | 0.00 | 0.00 | 39 | 1005.4 |
| 20260510024558 | 10 | 65 | 1.6 | 8.0 | 0.00 | 0.00 | 0.00 | 38 | 1005.0 |
| 20260510023104 | 10 | 41 | 1.6 | 6.4 | 0.00 | 0.00 | 0.00 | 37 | 1004.6 |
| 20260510021652 | 10 | 79 | 3.2 | 8.0 | 0.00 | 0.00 | 0.00 | 36 | 1004.3 |
| 20260510020118 | 11 | 112 | 0.0 | 8.0 | 0.00 | 0.00 | 0.00 | 36 | 1004.0 |
| 20260510014621 | 11 | 104 | 3.2 | 6.4 | 0.00 | 0.00 | 0.00 | 34 | 1003.8 |
| 20260510013005 | 11 | 118 | 1.6 | 6.4 | 0.00 | 0.00 | 0.00 | 33 | 1003.9 |
| 20260510011553 | 12 | 21 | 0.0 | 6.4 | 0.00 | 0.00 | 0.00 | 28 | 1003.9 |
| 20260510010054 | 12 | 355 | 0.0 | 1.6 | 0.00 | 0.00 | 0.00 | 29 | 1003.5 |
| 20260510004553 | 12 | 349 | 0.0 | 6.4 | 0.00 | 0.00 | 0.00 | 27 | 1003.4 |
| 20260510003013 | 12 | 263 | 0.0 | 3.2 | 0.00 | 0.00 | 0.00 | 27 | 1003.4 |
| 20260510001632 | 12 | 263 | 0.0 | 8.0 | 0.00 | 0.00 | 0.00 | 28 | 1003.3 |
| 20260510000122 | 13 | 342 | 1.6 | 4.8 | 0.00 | 0.00 | 0.00 | 27 | 1003.3 |